Location: Cardiff
(53.7833°N, 113.6000°W)
Time: 14:40:10
(UTC+00:00)

RS-15 - Pass Details

Date: 06 December 2023
Orbit: 1893 x 2151 km, 64.8° (Epoch: 20 February)

Event Time Altitude Azimuth Distance (km) Brightness Sun altitude
Rises 03:39:55 0° 198° (SSW) 5,653 10.5 -37.7°
Reaches altitude 10° 03:43:27 10° 195° (SSW) 4,640 10.0 -38.2°
Enters shadow 03:49:38 35° 181° (S) 3,036 8.8 -39.0°
